Regional Weather Roundup
Issued by NWS Upton, NY

Current Version | Previous Version | Text Only | Print | Product List | Glossary Off
Versions: 1 2 3 4 5 6 7 8 9 10 11 12 13 14 15 16 17 18 19 20 21 22 23 24 25 26 27 28 29 30 31 32 33 34 35 36 37 38 39 40 41 42 43 44 45 46 47 48 49 50

000
ASUS41 KOKX 221305
RWROKX

REGIONAL WEATHER ROUNDUP
NATIONAL WEATHER SERVICE NEW YORK NY
900 AM EDT FRI AUG 22 2014

NOTE: "FAIR" INDICATES FEW OR NO CLOUDS BELOW 12,000 FEET WITH NO
SIGNIFICANT WEATHER AND/OR OBSTRUCTIONS TO VISIBILITY.

NYZ071-072-176-178-NJZ106-104-221400-
NEW YORK CITY METRO AREA


CITY           SKY/WX    TMP DP  RH WIND       PRES   REMARKS
CENTRAL PARK   PTSUNNY   69  64  84 VRB3      30.06R
LAGUARDIA APRT PTSUNNY   70  62  76 E9        30.03S
KENNEDY INTL   PTSUNNY   72  63  73 E9        30.04R
NEWARK/LIBERTY CLOUDY    71  65  81 E6        30.03R
BRNX BOT. GARD   N/A     68  63  83 N8        30.04F
TETERBORO      CLOUDY    71  63  75 E7        30.02S
$$

NYZ177-179-078>081-221400-
LONG ISLAND NEW YORK

CITY           SKY/WX    TMP DP  RH WIND       PRES   REMARKS
FARMINGDALE    SUNNY     69  60  73 E7        30.04R
ISLIP          MOSUNNY   70  61  73 E14       30.03R
SHIRLEY        SUNNY     69  63  81 VRB6      30.04F
WESTHAMPTON    MOSUNNY   69  63  81 E10       30.05S
MONTAUK POINT    N/A     68  65  90 NE6       30.07S
$$

NYZ052-065-067-221400-
HUDSON VALLEY

CITY           SKY/WX    TMP DP  RH WIND       PRES   REMARKS
WHITE PLAINS   CLOUDY    68  60  75 E6        30.05R
NEWBURGH       CLOUDY    68  66  94 SE6       30.06R
MONTGOMERY     CLOUDY    67  64  90 CALM      30.04R
POUGHKEEPSIE   CLOUDY    69  61  75 SE7       30.03S
ALBANY         CLOUDY    67  63  87 SE5       30.05R
$$

NJZ001-105-106-008-010-013-015-019>022-104-221400-
NEW JERSEY

CITY           SKY/WX    TMP DP  RH WIND       PRES   REMARKS
NEWARK/LIBERTY CLOUDY    71  65  81 E6        30.03R
TETERBORO      CLOUDY    71  63  75 E7        30.02S
CALDWELL       CLOUDY    68  64  87 VRB3      30.04R
MORRISTOWN     CLOUDY    68  66  94 CALM      30.04R FOG
SOMERVILLE     CLOUDY    68  64  87 NW5       30.02R
LINDEN         CLOUDY    74  68  82 E6        30.04S
SUSSEX         CLOUDY    68  64  87 CALM      30.05
ANDOVER          N/A     66  64  93 CALM      30.05R
TRENTON        MOSUNNY   70  65  84 VRB3      30.02R
MILLVILLE      CLOUDY    72  68  87 E6        30.00R
ATLANTIC CITY  MOSUNNY   72  68  87 E8        30.00R
WRIGHTSTOWN    PTSUNNY   72  66  83 E5        30.00R
TOMS RIVER     CLOUDY    72  66  83 CALM      30.01S
BELMAR         CLOUDY    70  63  78 E8        30.02R
$$

PAZ047>061-062-071-221400-
EASTERN PENNSYLVANIA

CITY           SKY/WX    TMP DP  RH WIND       PRES   REMARKS
PHILADELPHIA   CLOUDY    70  66  87 NE7       30.01S
ALLENTOWN      CLOUDY    67  64  90 E5        30.04R
SCRANTON       CLOUDY    68  63  84 E5        30.03R
$$

CTZ002-004>006-009-010-012-RIZ004-006-007-MAZ004-011-015-221400-
SOUTHERN NEW ENGLAND
 IN CT

CITY           SKY/WX    TMP DP  RH WIND       PRES   REMARKS
BRADLEY INTL   CLOUDY    66  59  78 N5        30.07S
HARTFORD       CLOUDY    67  60  78 NE6       30.06S
DANBURY        CLOUDY    66  59  78 NE6       30.07R
WTRBRY/OXFORD  CLOUDY    64  57  77 E8        30.08S
BRIDGEPORT     MOSUNNY   70  62  76 NE14      30.05S
MERIDEN        PTSUNNY   69  61  75 CALM      30.05F
NEW HAVEN      MOSUNNY   71  60  68 E9        30.05S
CHESTER        FAIR      64  61  88 E8        30.07S
GROTON         PTSUNNY   66  61  84 NE9       30.05F
WILLIMANTIC    CLOUDY    67  60  78 NE7       30.07F

 IN RI

CITY           SKY/WX    TMP DP  RH WIND       PRES   REMARKS
PROVIDENCE     CLOUDY    66  63  90 N9        30.08S
BLOCK ISLAND   CLOUDY    66  61  82 E10       30.06S
WESTERLY       PTSUNNY   68  62  81 NE8       30.06F

 IN MA

CITY           SKY/WX    TMP DP  RH WIND       PRES   REMARKS
BOSTON         CLOUDY    65  63  93 NE14      30.09S
WORCESTER      CLOUDY    60  57  89 NE6       30.11R
WESTFIELD      CLOUDY    66  61  84 NE5       30.08S
PROVINCETOWN   PTSUNNY   70  64  83 MISG      30.08S
NANTUCKET      FOG       64  63  96 NE12      30.05S VSB 1
$$

ANZ330-335-338-340-345-350-353-355-221400-
COASTAL MARINE OBSERVATIONS


STATION/POSITION TIME  SKY/WX   TEMP    WIND        PRES    VSBY  WAVE
                                AIR SEA DIR/SP/G                  HT/PER
                 (UTC)          (F)     (DEG/KT/KT) (MB)    (MI)  (FT/S)
NY HARB ENTRANCE NOT AVBL
4S FIRE IS       NOT AVBL
23SW MTP         1300            68 69              1016.4          4/ 7
HUDSON CANYON    1300            71 72   60/ 14/ 17 1015.9          3/ 7
EXECUTION ROCKS  1300            69 73   90/  8/ 12   N/A
WESTERN LI SOUND 1300            68     110/ 10/ 12   N/A           1/ 3
CENTRAL LI SOUND 1300            67 72   80/ 16/ 19   N/A           2/ 2
EASTERN LI SOUND 1200            67 68   60/ 12/ 16   N/A
ROBBINS REEF     1300            70      80/  9/ 12   N/A
$$


>>>>>>>>>>>>>>>>>>>>>>>>>>>> KEY <<<<<<<<<<<<<<<<<<<<<<<<<<<
>                                                          <
>     SKY/WX - SKY CONDITION/PRESENT WEATHER               <
>     TMP    - TEMPERATURE IN FAHRENHEIT                   <
>     DP     - DEWPOINT IN FAHRENHEIT                      <
>     RH     - RELATIVE HUMIDITY IN PERCENT                <
>     WIND   - DIRECTION AND SPEED IN MPH                  <
>     PRES   - MEAN SEA LEVEL PRESSURE IN INCHES OF HG     <
>     WCI    - WIND CHILL INDEX                            <
>     VSB    - VISIBILITY IN MILES                         <
>     HX     - HEAT INDEX                                  <
>     TC     - TEMPERATURE IN CELSIUS                      <
>     VRB    - VARIABLE WIND DIRECTION                     <
>                                                          <
>>>>>>>>>>>>>>>>>>>>>>>>>>>> KEY <<<<<<<<<<<<<<<<<<<<<<<<<<<




USA.gov is the U.S. government's official web portal to all federal, state and local government web resources and services.